Date String (YYYY-MM-DD hh:mm:ss) UTC,Instrument flags,Ambient pressure (hPa),Sample flow (lpm),Bypass flow (lpm),Sample temperature (°C),Ambient temperature (°C),ASC tube jacket temperature (°C),LED temperature (°C),Box temperature (°C),Sample RH (%),Span deviation,Mass concentration (μg/m³),Mass concentration (μg/m³),Mass concentration (μg/m³)
DateTimeUTC,F1_M11,P_M11,Q1_M11,Q2_M11,T1_M11,T2_M11,T3_M11,T4_M11,T5_M11,U1_M11,ZSPAN_M11,X0_M11,X2_M11,X1_M11
2021-11-06 22:00:00,,0824.8,5.00,0.00,30.4,29.3,00.0,39.3,32.2,05.7,0000.0,0010.36,0002.74,0001.63
2021-11-06 22:01:00,,0824.8,5.00,0.00,30.4,27.2,00.0,39.2,31.8,05.6,0000.0,0009.70,0002.75,0001.63
2021-11-06 22:02:00,,0824.8,5.00,0.00,30.2,26.0,00.0,39.2,31.5,05.6,0000.0,0009.26,0002.76,0001.61
2021-11-06 22:03:00,,0824.8,5.01,0.00,30.1,26.3,00.0,39.2,31.5,05.6,0000.0,0009.72,0002.76,0001.59
2021-11-06 22:04:00,,0824.8,4.99,0.00,30.0,26.8,00.0,39.1,31.5,05.6,0000.0,0011.35,0002.77,0001.58
2021-11-06 22:05:00,,0824.8,5.01,0.00,30.0,27.3,00.0,39.1,31.6,05.5,0000.0,0011.48,0002.70,0001.56
2021-11-06 22:06:00,,0824.7,5.00,0.00,30.0,27.7,00.0,39.1,31.6,05.6,0000.0,0012.46,0002.66,0001.56
2021-11-06 22:07:00,,0824.7,4.99,0.00,30.0,28.1,00.0,39.0,31.7,05.7,0000.0,0012.85,0002.63,0001.54
2021-11-06 22:08:00,,0824.7,5.00,0.00,30.0,28.4,00.0,39.0,31.8,05.8,0000.0,0012.87,0002.61,0001.53
2021-11-06 22:09:00,,0824.6,5.00,0.00,30.1,28.7,00.0,39.0,31.8,05.9,0000.0,0012.25,0002.56,0001.52
2021-11-06 22:10:00,,0824.7,5.00,0.00,30.1,28.9,00.0,39.0,31.9,05.9,0000.0,0012.08,0002.62,0001.53
2021-11-06 22:11:00,,0824.7,5.00,0.00,30.1,29.0,00.0,39.0,32.0,05.9,0000.0,0012.27,0002.69,0001.52
2021-11-06 22:12:00,,0824.7,4.99,0.00,30.2,29.2,00.0,39.1,32.0,06.0,0000.0,0012.11,0002.73,0001.52
2021-11-06 22:13:00,,0824.8,5.00,0.00,30.2,29.3,00.0,39.1,32.0,06.3,0000.0,0012.56,0002.70,0001.53
2021-11-06 22:14:00,,0824.7,4.99,0.00,30.2,29.4,00.0,39.1,32.1,06.3,0000.0,0012.50,0002.77,0001.54
2021-11-06 22:15:00,,0824.6,5.00,0.00,30.3,29.5,00.0,39.1,32.1,06.4,0000.0,0010.88,0002.76,0001.56
2021-11-06 22:16:00,,0824.7,5.02,0.00,30.3,29.6,00.0,39.2,32.2,06.4,0000.0,0010.68,0002.87,0001.58
2021-11-06 22:17:00,,0824.7,5.00,0.00,30.4,29.3,00.0,39.2,32.1,06.4,0000.0,0009.79,0002.97,0001.61
2021-11-06 22:18:00,,0824.7,4.99,0.00,30.3,27.1,00.0,39.2,31.7,06.4,0000.0,0009.63,0003.00,0001.64
2021-11-06 22:19:00,,0824.7,5.00,0.00,30.1,25.9,00.0,39.1,31.3,06.4,0000.0,0010.00,0002.97,0001.65
2021-11-06 22:20:00,,0824.7,5.01,0.00,30.0,26.1,00.0,39.1,31.4,06.6,0000.0,0010.78,0002.98,0001.67
2021-11-06 22:21:00,,0824.6,4.99,0.00,29.9,26.6,00.0,39.0,31.4,06.6,0000.0,0010.26,0002.94,0001.67
2021-11-06 22:22:00,,0824.6,5.00,0.00,29.9,27.2,00.0,39.0,31.5,06.6,0000.0,0010.46,0002.87,0001.67
2021-11-06 22:23:00,,0824.7,4.99,0.00,29.9,27.6,00.0,39.0,31.5,06.7,0000.0,0010.33,0002.83,0001.69
2021-11-06 22:24:00,,0824.7,5.01,0.00,29.9,28.0,00.0,39.0,31.6,06.6,0000.0,0010.35,0002.91,0001.69
2021-11-06 22:25:00,,0824.7,5.00,0.00,29.9,28.3,00.0,38.9,31.7,06.8,0000.0,0010.70,0002.90,0001.71
2021-11-06 22:26:00,,0824.7,5.01,0.00,30.0,28.6,00.0,39.0,31.7,06.9,0000.0,0010.96,0002.88,0001.71
2021-11-06 22:27:00,,0824.8,4.99,0.00,30.0,28.8,00.0,39.0,31.8,06.8,0000.0,0010.86,0002.84,0001.71
2021-11-06 22:28:00,,0824.8,5.01,0.00,30.0,29.0,00.0,39.0,31.9,06.6,0000.0,0011.04,0002.78,0001.70
2021-11-06 22:29:00,,0824.8,5.00,0.00,30.1,29.2,00.0,39.0,31.9,06.6,0000.0,0011.55,0002.77,0001.68
2021-11-06 22:30:00,,0824.8,5.00,0.00,30.1,29.3,00.0,39.0,32.0,06.7,0000.0,0011.32,0002.75,0001.67
2021-11-06 22:31:00,,0824.8,5.00,0.00,30.2,29.4,00.0,39.0,32.0,06.7,0000.0,0010.43,0002.80,0001.67
2021-11-06 22:32:00,,0824.8,4.99,0.00,30.2,29.5,00.0,39.1,32.1,06.7,0000.0,0010.39,0002.95,0001.69
2021-11-06 22:33:00,,0824.9,5.01,0.00,30.3,29.2,00.0,39.1,32.0,06.7,0000.0,0009.98,0002.99,0001.70
2021-11-06 22:34:00,,0824.8,5.00,0.00,30.2,27.1,00.0,39.1,31.6,06.6,0000.0,0010.31,0002.98,0001.72
2021-11-06 22:35:00,,0824.8,5.00,0.00,30.0,25.8,00.0,39.1,31.3,06.6,0000.0,0010.79,0002.95,0001.72
2021-11-06 22:36:00,,0824.9,5.00,0.00,29.9,26.1,00.0,39.0,31.4,06.7,0000.0,0010.61,0002.96,0001.71
2021-11-06 22:37:00,,0824.9,5.00,0.00,29.9,26.6,00.0,39.0,31.3,06.8,0000.0,0010.16,0002.97,0001.70
2021-11-06 22:38:00,,0824.8,5.00,0.00,29.8,27.1,00.0,38.9,31.4,06.8,0000.0,0010.26,0002.97,0001.70
2021-11-06 22:39:00,,0824.8,5.01,0.00,29.8,27.6,00.0,38.9,31.5,06.7,0000.0,0010.11,0002.98,0001.69
2021-11-06 22:40:00,,0824.8,4.98,0.00,29.8,28.0,00.0,38.9,31.6,06.6,0000.0,0009.52,0003.08,0001.69
2021-11-06 22:41:00,,0824.7,5.01,0.00,29.9,28.3,00.0,38.9,31.6,06.5,0000.0,0009.42,0003.10,0001.69
2021-11-06 22:42:00,,0824.8,4.99,0.00,29.9,28.6,00.0,38.9,31.7,06.5,0000.0,0009.70,0003.13,0001.68
2021-11-06 22:43:00,,0824.7,5.00,0.00,29.9,28.8,00.0,38.9,31.8,06.5,0000.0,0010.02,0003.09,0001.68
2021-11-06 22:44:00,,0824.7,5.01,0.00,30.0,29.0,00.0,38.9,31.8,06.6,0000.0,0010.05,0003.10,0001.67
2021-11-06 22:45:00,,0824.8,4.99,0.00,30.0,29.2,00.0,38.9,31.9,06.4,0000.0,0010.71,0003.11,0001.64
2021-11-06 22:46:00,,0824.8,5.01,0.00,30.1,29.3,00.0,39.0,32.0,06.4,0000.0,0011.23,0003.10,0001.63
2021-11-06 22:47:00,,0824.8,4.99,0.00,30.1,29.4,00.0,39.0,32.0,06.5,0000.0,0011.13,0003.10,0001.62
2021-11-06 22:48:00,,0824.8,5.00,0.00,30.2,29.0,00.0,39.0,32.0,06.6,0000.0,0011.82,0003.12,0001.63
2021-11-06 22:49:00,,0824.8,5.00,0.00,30.1,27.0,00.0,39.0,31.6,06.5,0000.0,0011.92,0003.11,0001.61
2021-11-06 22:50:00,,0824.8,5.01,0.00,30.0,25.9,00.0,39.0,31.3,06.5,0000.0,0011.82,0003.09,0001.61
2021-11-06 22:51:00,,0824.9,5.01,0.00,29.9,26.1,00.0,38.9,31.3,06.7,0000.0,0011.70,0003.02,0001.61
2021-11-06 22:52:00,,0824.8,4.99,0.00,29.8,26.6,00.0,38.9,31.3,06.8,0000.0,0011.79,0003.03,0001.60
2021-11-06 22:53:00,,0824.8,5.00,0.00,29.7,27.1,00.0,38.8,31.3,06.8,0000.0,0012.19,0003.01,0001.59
2021-11-06 22:54:00,,0824.8,5.00,0.00,29.7,27.6,00.0,38.8,31.4,06.7,0000.0,0012.00,0002.95,0001.59
2021-11-06 22:55:00,,0824.8,5.01,0.00,29.8,28.0,00.0,38.8,31.5,06.8,0000.0,0012.18,0002.94,0001.59
2021-11-06 22:56:00,,0824.8,4.99,0.00,29.8,28.3,00.0,38.8,31.6,06.7,0000.0,0011.44,0003.00,0001.58
2021-11-06 22:57:00,,0824.8,5.01,0.00,29.8,28.6,00.0,38.8,31.7,06.7,0000.0,0010.28,0003.03,0001.60
2021-11-06 22:58:00,,0824.8,4.98,0.00,29.9,28.8,00.0,38.8,31.7,06.5,0000.0,0011.07,0003.04,0001.62
2021-11-06 22:59:00,,0824.8,4.99,0.00,29.9,29.0,00.0,38.8,31.8,06.6,0000.0,0010.41,0002.97,0001.61
